Regional Weather Roundup
Issued by NWS Charleston, SC

Current Version | Previous Version | Text Only | Print | Product List | Glossary Off
Versions: 1 2 3 4 5 6 7 8 9 10 11 12 13 14 15 16 17 18 19 20 21 22 23 24 25 26 27 28 29 30 31 32 33 34 35 36 37 38 39 40 41 42 43 44 45 46 47 48 49 50

000
ASUS42 KCHS 292110
RWRCHS

REGIONAL WEATHER ROUNDUP
NATIONAL WEATHER SERVICE CHARLESTON SC
500 PM EDT FRI AUG 29 2014

NOTE: "FAIR" INDICATES FEW OR NO CLOUDS BELOW 12,000 FEET WITH NO
SIGNIFICANT WEATHER AND/OR OBSTRUCTIONS TO VISIBILITY.

NOT ALL STATIONS ARE QUALITY CONTROLLED BY THE NATIONAL
WEATHER SERVICE. USE DATA WITH CAUTION...ESPECIALLY
DEWPOINT OBSERVATIONS.

SCZ027-030-031-034>040-042>050-292200-
...SOUTH CAROLINA...

CITY           SKY/WX    TMP DP  RH WIND       PRES   REMARKS
N CHARLESTON   MOSUNNY   90  71  53 SE14      30.06S HX  96
WATERFRONT PRK   N/A     84 N/A N/A E12         N/A
FORT JOHNSON   NOT AVBL
MOUNT PLEASANT FAIR      86  75  70 SE8       30.07S HX  95
JOHNS ISLAND   PTCLDY    86  75  70 SE7       30.06F HX  95
PINOPOLIS        N/A     93  73  52 SE3       29.98R HX 102
MONCKS CORNER    N/A     90  77  66 S5        30.05S HX 102
SUMMERVILLE    RAIN      81  75  83 NE5       30.06R
BEAUFORT MCAS  SUNNY     90  69  50 S6        30.05S HX  94
BEAUFORT ARPT  FAIR      88  70  55 S3        30.05S HX  92
HILTON HEAD IS SUNNY     88  70  55 E3        30.07S HX  92
GEORGETOWN     NOT AVBL
WALTERBORO     PTCLDY    93  59  31 SE9       30.05R HX  92
ORANGEBURG     SUNNY     93  56  28 CALM      30.04S HX  91
BARNWELL       FAIR      95  57  28 SE10      30.04S HX  94
AIKEN          FAIR      95  61  31 E7        30.07S HX  95
MANNING        FAIR      91  68  46 E3        30.05S HX  95
KINGSTREE      NOT AVBL
COLUMBIA       MOSUNNY   95  54  25 SE8       30.03F HX  93
SUMTER         SUNNY     94  56  27 S7        30.04S HX  93
FLORENCE       SUNNY     93  62  35 SE8       30.05S HX  93
MYRTLE BEACH   MOSUNNY   86  73  66 SE12      30.08S HX  93
N MYRTLE BEACH SUNNY     84  73  69 SE9       30.08S HX  90

$$

GAZ063-065-086>088-099>101-113>116-118-119-134-136>141-150-292200-
...GEORGIA...

CITY           SKY/WX    TMP DP  RH WIND       PRES   REMARKS
SAVANNAH ARPT  MOSUNNY   88  69  53 E13       30.04S HX  92
HUNTER AAF     SUNNY     89  69  51 SE7       30.03S HX  93
FORT STEWART   SUNNY     91  70  49 SE9       30.02S HX  97
STATESBORO     NOT AVBL
SYLVANIA       MOCLDY    90  65  42 CALM      30.04S HX  92
CLAXTON        NOT AVBL
THOMSON        SUNNY     96  66  36 S3        30.07F HX  99
AUGUSTA-BUSH   MOSUNNY   95  51  22 SE8       30.02F HX  92
AUGUSTA-DANIEL SUNNY     95  52  23 CALM      30.04F HX  92
SWAINSBORO     FAIR      95  64  36 SE5       30.03S HX  97
VIDALIA          N/A     95  63  34 SE3       30.02F HX  96
ALMA           MOSUNNY   93  62  35 VRB5      30.02S HX  93
WAYCROSS       SUNNY     98  67  36 S3        30.01S HX 102
JESUP            N/A     95  72  46 S9        30.03R HX 103
BRUNSWICK      SUNNY     90  66  45 SE8       30.05S HX  92
SAINT SIMONS   SUNNY     86  74  67 SE12      30.04F HX  94

$$

SCZ027-028-034-036>038-045-046-048>050-GAZ119-141-292200-
...LAKE AND SUPPLEMENTAL COASTAL OBSERVATIONS...

STATION/POSITION TIME  TEMP    WIND        PRES    WAVE   SWELL
                       AIR SEA DIR/SP/G            HT/PER HT/PER/DIR
                 (UTC) (F)     (DEG/KT/KT) (MB)    (FT/S) (FT/S/D)
UPR LAKE MARION  NOT AVBL
WINYAH BAY       2000   83     110/  9     1018.0S
LAKE MURRAY      2000   89     200/  6/  8 1016.3F
ACE BASIN NERRS  2000   88     140/  3     1018.0S
FORT PULASKI     2100   85     140/  8/ 12 1017.9R
SAPELO ISLAND    2000   89     120/  9     1019.0S

$$

ANZ835-935-AMZ111-154-330-350-352-354-374-450-454-472-292200-
...C-MAN AND BUOY OBSERVATIONS...

STATION/POSITION TIME  TEMP    WIND        PRES    WAVE   SWELL
                       AIR SEA DIR/SP/G            HT/PER HT/PER/DIR
                 (UTC) (F)     (DEG/KT/KT) (MB)    (FT/S) (FT/S/D)
FOLLY BEACH CMAN 2000   83     110/  8/  9 1018.6F
BUOY 41004       2100   82 84   40/  8/ 10 1017.9F   3/ 9   3/ 9
BUOY 41008       2100   83 85  120/  8/ 10 1017.7F   2/ 9   2/110/ 9
5E ST. MARYS GA  2100      85                N/A     2/ 9
FRYING PAN BUOY  NOT AVBL
BUOY 41025       2100   81     290/  2/  2 1019.4R   3/ 9   3/ 60/ 9
CAPE LOOKOUT NC  2000   83     200/  6/  6 1018.9F
BUOY 41002       2031   81 84   90/  6/  8 1020.0S   4/ 8   3/ 90/ 8
BUOY 41010       2100   83 84   70/  2/  2 1017.9R   3/ 8   3/110/ 8
BUOY 41012       NOT AVBL
ST AUGUSTINE FL  2100   83     110/ 14/ 15 1017.7R
CAPERS NEARSHORE 2000   82     100/ 12/ 16   N/A
FRIPP NEARSHORE  NOT AVBL


$$


USA.gov is the U.S. government's official web portal to all federal, state and local government web resources and services.